This is the latest recevied weather packets stored in our database for station/object N4HAC. If no packets are shown the sender has not sent any weather packets the latest 10 day(s).
| Time | Temp. | Humidity | Pressure | Rain* | Wind** | Luminosity | Snow |
|---|---|---|---|---|---|---|---|
| 1777828884 | 13.33° C | 37% | 1011.3 hPa | 0 mm | - | 1027 W/m² | - |
| 1777828580 | 12.78° C | 37% | 1011.5 hPa | 0 mm | - | 975 W/m² | - |
| 1777828277 | 13.89° C | 41% | 1011.4 hPa | 0 mm | - | 958 W/m² | - |
| 1777827974 | 12.22° C | 37% | 1011.2 hPa | 0 mm | - | 937 W/m² | - |
| 1777827671 | 11.67° C | 38% | 1011.4 hPa | 0 mm | - | 952 W/m² | - |
| 1777827368 | 12.78° C | 40% | 1011.4 hPa | 0 mm | - | 973 W/m² | - |
| 1777827064 | 12.22° C | 38% | 1011.4 hPa | 0 mm | - | 234 W/m² | - |
| 1777826761 | 12.22° C | 39% | 1011.6 hPa | 0 mm | - | 431 W/m² | - |
| 1777826458 | 12.78° C | 45% | 1011.6 hPa | 0 mm | - | 964 W/m² | - |
| 1777826155 | 12.78° C | 40% | 1011.5 hPa | 0 mm | - | 956 W/m² | - |
| 1777825852 | 12.22° C | 38% | 1011.6 hPa | 0 mm | - | 975 W/m² | - |
| 1777825549 | 11.67° C | 38% | 1011.8 hPa | 0 mm | - | 961 W/m² | - |
| 1777825247 | 11.67° C | 42% | 1011.7 hPa | 0 mm | - | 191 W/m² | - |
| 1777824944 | 11.67° C | 40% | 1011.8 hPa | 0 mm | - | 733 W/m² | - |
| 1777824639 | 12.22° C | 41% | 1011.9 hPa | 0 mm | - | 939 W/m² | - |
| 1777824337 | 11.67° C | 38% | 1012 hPa | 0 mm | - | 923 W/m² | - |
| 1777824032 | 11.67° C | 42% | 1011.8 hPa | 0 mm | - | 951 W/m² | - |
| 1777823729 | 12.22° C | 39% | 1012.1 hPa | 0 mm | - | 1015 W/m² | - |
| 1777823426 | 11.67° C | 42% | 1012.1 hPa | 0 mm | - | 924 W/m² | - |
| 1777823124 | 11.11° C | 41% | 1012.2 hPa | 0 mm | - | 961 W/m² | - |
| 1777822821 | 11.11° C | 42% | 1012.3 hPa | 0 mm | - | 309 W/m² | - |
| 1777822519 | 11.11° C | 41% | 1012.4 hPa | 0 mm | - | 318 W/m² | - |
| 1777822216 | 11.67° C | 45% | 1012.2 hPa | 0 mm | - | 960 W/m² | - |
| 1777821914 | 10.56° C | 40% | 1012.3 hPa | 0 mm | - | 934 W/m² | - |
| 1777821612 | 10° C | 45% | 1012.2 hPa | 0 mm | - | 391 W/m² | - |
* Rain latest hour (hover to see other rain measurements)
** Current wind speed in m/s (hover to see current wind gust speed)